Regional Weather Roundup
Issued by NWS

Home | Current Version | Previous Version | Graphics & Text | Print | Product List | Glossary On
Versions: 1 2 3 4 5 6 7 8 9 10 11 12 13 14 15 16 17 18 19 20 21 22 23 24 25 26 27 28 29 30 31 32 33 34 35 36 37 38 39 40 41 42 43 44 45 46 47 48 49 50
000
ASUS43 KLMK 220210
RWRKY
KENTUCKY REGIONAL WEATHER ROUNDUP
NATIONAL WEATHER SERVICE LOUISVILLE KY
1000 PM EDT THU MAY 21 2015

NOTE "FAIR" INDICATES FEW OR NO CLOUDS BELOW 12,000 FEET
WITH NO SIGNIFICANT WEATHER AND/OR OBSTRUCTIONS TO VISIBILITY.

KYZ001>023-026-027-061>063-070>075-220300-
WESTERN AND SOUTH CENTRAL KENTUCKY

CITY           SKY/WX    TMP DP  RH WIND       PRES   REMARKS
PADUCAH        CLEAR     52  46  80 CALM      30.20R
HENDERSON      CLEAR     52  45  76 CALM      30.18R
OWENSBORO      CLEAR     53  45  74 CALM      30.19R
HOPKINSVILLE   PTCLDY    53  46  78 NW3       30.20R
BOWLING GREEN  CLEAR     52  45  77 NW3       30.19R
GLASGOW        PTCLDY    50  46  84 CALM      30.18R
$$

KYZ024-025-028>034-038-045-046-053-220300-
NORTH CENTRAL KENTUCKY

CITY           SKY/WX    TMP DP  RH WIND       PRES   REMARKS
LOUISVILLE/SDF CLEAR     54  43  66 SW5       30.16R
LOUISVILLE/LOU CLEAR     52  43  71 CALM      30.16R
FORT KNOX      CLEAR     49  44  84 W3        30.15R
$$

KYZ035>037-039>044-047>052-055>060-089>105-220300-
NORTHEAST KENTUCKY

CITY           SKY/WX    TMP DP  RH WIND       PRES   REMARKS
LEXINGTON      CLEAR     50  42  74 SW3       30.14R
COVINGTON      CLEAR     51  41  68 W5        30.11R
FRANKFORT      CLEAR     48  42  80 CALM      30.14R
$$

KYZ054-064>069-076>088-106>120-220300-
SOUTHEAST KENTUCKY

CITY           SKY/WX    TMP DP  RH WIND       PRES   REMARKS
JACKSON        CLOUDY    50  47  89 CALM      30.13S FOG
LONDON         CLOUDY    52  46  80 W3        30.15R
SOMERSET       CLOUDY    50  45  81 NW6       30.17R
MIDDLESBORO    CLOUDY    53  47  82 NW6       30.15R
MONTICELLO     CLOUDY    53  49  86 NW6       30.19R
$$



USA.gov is the U.S. government's official web portal to all federal, state and local government web resources and services.